Date String (YYYY-MM-DD hh:mm:ss) UTC,Instrument flags,Ambient pressure (hPa),Sample flow (lpm),Bypass flow (lpm),Sample temperature (°C),Ambient temperature (°C),ASC tube jacket temperature (°C),LED temperature (°C),Box temperature (°C),Sample RH (%),Span deviation,Mass concentration (μg/m³),Mass concentration (μg/m³),Mass concentration (μg/m³)
DateTimeUTC,F1_M11,P_M11,Q1_M11,Q2_M11,T1_M11,T2_M11,T3_M11,T4_M11,T5_M11,U1_M11,ZSPAN_M11,X0_M11,X2_M11,X1_M11
2022-05-14 19:00:00,,0826.7,5.01,0.00,29.6,27.7,00.0,38.4,31.3,08.5,0000.0,0005.60,0002.74,0001.57
2022-05-14 19:01:00,,0826.7,4.99,0.00,29.5,25.6,00.0,38.4,30.8,08.8,0000.0,0005.67,0002.74,0001.56
2022-05-14 19:02:00,,0826.7,5.00,0.00,29.4,25.3,00.0,38.4,30.7,09.3,0000.0,0005.62,0002.69,0001.55
2022-05-14 19:03:00,,0826.6,5.01,0.00,29.3,25.8,00.0,38.3,30.9,08.8,0000.0,0006.60,0002.73,0001.56
2022-05-14 19:04:00,,0826.6,4.98,0.00,29.3,26.3,00.0,38.3,30.9,09.0,0000.0,0007.26,0002.74,0001.55
2022-05-14 19:05:00,,0826.7,5.01,0.00,29.3,26.7,00.0,38.2,30.9,09.1,0000.0,0007.16,0002.68,0001.54
2022-05-14 19:06:00,,0826.6,5.01,0.00,29.3,27.1,00.0,38.2,31.0,09.4,0000.0,0006.88,0002.64,0001.54
2022-05-14 19:07:00,,0826.7,4.99,0.00,29.3,27.4,00.0,38.2,31.0,08.9,0000.0,0006.76,0002.62,0001.54
2022-05-14 19:08:00,,0826.6,4.99,0.00,29.3,27.7,00.0,38.2,31.1,09.1,0000.0,0006.95,0002.59,0001.54
2022-05-14 19:09:00,,0826.6,5.00,0.00,29.4,27.9,00.0,38.2,31.2,09.1,0000.0,0006.74,0002.51,0001.53
2022-05-14 19:10:00,,0826.6,5.00,0.00,29.4,28.1,00.0,38.2,31.2,09.1,0000.0,0006.69,0002.51,0001.52
2022-05-14 19:11:00,,0826.6,5.00,0.00,29.4,28.2,00.0,38.2,31.3,08.8,0000.0,0006.92,0002.55,0001.52
2022-05-14 19:12:00,,0826.6,5.00,0.00,29.5,28.3,00.0,38.3,31.3,08.3,0000.0,0006.92,0002.59,0001.53
2022-05-14 19:13:00,,0826.6,5.00,0.00,29.5,28.4,00.0,38.3,31.4,08.7,0000.0,0006.92,0002.59,0001.54
2022-05-14 19:14:00,,0826.5,5.01,0.00,29.5,28.5,00.0,38.3,31.4,08.4,0000.0,0006.28,0002.64,0001.55
2022-05-14 19:15:00,,0826.6,5.00,0.00,29.6,28.6,00.0,38.3,31.4,08.3,0000.0,0005.44,0002.62,0001.56
2022-05-14 19:16:00,,0826.6,5.00,0.00,29.6,28.7,00.0,38.3,31.5,08.3,0000.0,0005.29,0002.57,0001.56
2022-05-14 19:17:00,,0826.6,5.00,0.00,29.6,27.8,00.0,38.4,31.3,08.4,0000.0,0005.44,0002.66,0001.57
2022-05-14 19:18:00,,0826.5,5.01,0.00,29.5,25.6,00.0,38.4,30.8,08.2,0000.0,0005.62,0002.71,0001.58
2022-05-14 19:19:00,,0826.5,5.00,0.00,29.3,25.2,00.0,38.3,30.7,08.7,0000.0,0006.03,0002.79,0001.59
2022-05-14 19:20:00,,0826.5,5.00,0.00,29.3,25.7,00.0,38.3,30.8,08.5,0000.0,0006.22,0002.84,0001.60
2022-05-14 19:21:00,,0826.5,5.00,0.00,29.2,26.1,00.0,38.2,30.8,09.1,0000.0,0006.21,0002.81,0001.59
2022-05-14 19:22:00,,0826.5,4.99,0.00,29.2,26.6,00.0,38.2,30.9,09.4,0000.0,0006.06,0002.78,0001.59
2022-05-14 19:23:00,,0826.5,5.00,0.00,29.2,27.0,00.0,38.2,31.0,09.0,0000.0,0005.98,0002.75,0001.60
2022-05-14 19:24:00,,0826.5,5.00,0.00,29.3,27.3,00.0,38.2,31.0,09.0,0000.0,0005.99,0002.75,0001.59
2022-05-14 19:25:00,,0826.6,5.00,0.00,29.3,27.6,00.0,38.2,31.1,08.7,0000.0,0006.04,0002.76,0001.59
2022-05-14 19:26:00,,0826.5,5.00,0.00,29.3,27.8,00.0,38.2,31.2,09.2,0000.0,0005.99,0002.74,0001.59
2022-05-14 19:27:00,,0826.5,5.00,0.00,29.4,28.0,00.0,38.2,31.2,08.6,0000.0,0006.04,0002.77,0001.58
2022-05-14 19:28:00,,0826.5,4.99,0.00,29.4,28.1,00.0,38.2,31.3,08.4,0000.0,0006.04,0002.78,0001.59
2022-05-14 19:29:00,,0826.5,5.00,0.00,29.4,28.3,00.0,38.2,31.3,08.6,0000.0,0005.99,0002.79,0001.60
2022-05-14 19:30:00,,0826.5,5.01,0.00,29.5,28.4,00.0,38.3,31.3,08.9,0000.0,0005.26,0002.76,0001.60
2022-05-14 19:31:00,,0826.5,5.01,0.00,29.5,28.5,00.0,38.3,31.4,09.0,0000.0,0005.42,0002.84,0001.63
2022-05-14 19:32:00,,0826.5,4.99,0.00,29.6,28.6,00.0,38.3,31.5,08.4,0000.0,0006.41,0002.84,0001.64
2022-05-14 19:33:00,,0826.4,5.00,0.00,29.6,28.7,00.0,38.3,31.5,09.0,0000.0,0006.51,0002.80,0001.64
2022-05-14 19:34:00,,0826.5,5.01,0.00,29.6,27.9,00.0,38.4,31.3,08.8,0000.0,0006.53,0002.80,0001.64
2022-05-14 19:35:00,,0826.4,5.00,0.00,29.5,25.8,00.0,38.3,30.8,09.4,0000.0,0006.68,0002.85,0001.65
2022-05-14 19:36:00,,0826.3,4.99,0.00,29.3,25.2,00.0,38.3,30.7,08.9,0000.0,0007.38,0002.80,0001.63
2022-05-14 19:37:00,,0826.2,5.01,0.00,29.3,25.7,00.0,38.3,30.8,08.7,0000.0,0007.76,0002.78,0001.64
2022-05-14 19:38:00,,0826.2,4.99,0.00,29.2,26.2,00.0,38.2,30.8,09.0,0000.0,0007.79,0002.82,0001.66
2022-05-14 19:39:00,,0826.2,5.00,0.00,29.2,26.6,00.0,38.2,30.9,09.0,0000.0,0007.77,0002.79,0001.66
2022-05-14 19:40:00,,0826.2,5.00,0.00,29.2,27.0,00.0,38.2,31.0,08.8,0000.0,0007.67,0002.75,0001.65
2022-05-14 19:41:00,,0826.2,5.00,0.00,29.3,27.3,00.0,38.2,31.0,08.6,0000.0,0007.60,0002.74,0001.64
2022-05-14 19:42:00,,0826.2,5.00,0.00,29.3,27.6,00.0,38.2,31.1,08.6,0000.0,0007.51,0002.70,0001.64
2022-05-14 19:43:00,,0826.3,4.99,0.00,29.3,27.9,00.0,38.2,31.2,09.9,0000.0,0007.87,0002.73,0001.66
2022-05-14 19:44:00,,0826.2,5.01,0.00,29.4,28.1,00.0,38.2,31.2,09.7,0000.0,0008.64,0002.80,0001.68
2022-05-14 19:45:00,,0826.2,5.01,0.00,29.4,28.2,00.0,38.2,31.3,09.0,0000.0,0008.70,0002.88,0001.70
2022-05-14 19:46:00,,0826.2,4.99,0.00,29.5,28.3,00.0,38.2,31.3,08.6,0000.0,0008.69,0002.88,0001.73
2022-05-14 19:47:00,,0826.2,5.00,0.00,29.5,28.4,00.0,38.3,31.4,08.8,0000.0,0008.33,0002.94,0001.77
2022-05-14 19:48:00,,0826.2,5.00,0.00,29.5,28.5,00.0,38.3,31.4,08.7,0000.0,0008.00,0003.05,0001.81
2022-05-14 19:49:00,,0826.2,5.01,0.00,29.6,28.6,00.0,38.3,31.4,09.0,0000.0,0008.06,0003.07,0001.82
2022-05-14 19:50:00,,0826.2,5.00,0.00,29.6,28.7,00.0,38.3,31.5,09.5,0000.0,0008.05,0003.10,0001.85
2022-05-14 19:51:00,,0826.1,5.00,0.00,29.6,28.1,00.0,38.4,31.4,09.1,0000.0,0008.08,0003.12,0001.90
2022-05-14 19:52:00,,0826.1,5.00,0.00,29.5,26.0,00.0,38.4,30.9,09.2,0000.0,0008.09,0003.14,0001.95
2022-05-14 19:53:00,,0826.1,4.99,0.00,29.4,25.4,00.0,38.3,30.7,09.2,0000.0,0008.31,0003.17,0001.99
2022-05-14 19:54:00,,0826.1,5.00,0.00,29.3,25.8,00.0,38.3,30.9,09.0,0000.0,0007.98,0003.20,0002.05
2022-05-14 19:55:00,,0826.1,5.00,0.00,29.3,26.2,00.0,38.2,30.8,09.0,0000.0,0006.73,0003.24,0002.13
2022-05-14 19:56:00,,0826.1,5.00,0.00,29.3,26.7,00.0,38.2,30.9,09.1,0000.0,0006.58,0003.26,0002.20
2022-05-14 19:57:00,,0826.1,5.00,0.00,29.3,27.1,00.0,38.2,31.0,08.9,0000.0,0006.75,0003.28,0002.26
2022-05-14 19:58:00,,0826.1,5.00,0.00,29.3,27.4,00.0,38.2,31.0,08.6,0000.0,0007.18,0003.33,0002.34
2022-05-14 19:59:00,,0826.1,4.99,0.00,29.3,27.7,00.0,38.2,31.1,08.5,0000.0,0007.03,0003.31,0002.39
